Flag Weather past 2 weeks in Singapore, Singapore

Now
88 °F

Broken clouds.


Feels Like: 100 °F
Forecast: 77 / 90 °F
Wind: 5 mph from East

Location: Singapore / Paya Lebar

Current Time: Nov 27, 2014 at 2:47:48 PM

Latest Report: Nov 27, 2014 at 2:00 PM


Visibility: N/A

Pressure: 29.77 "Hg

Humidity: 70%

Dew point: 77 °F

Location of SingaporeLocation

Historic Weather in Singapore — Graph

°F

Singapore temperature yesterday

Maximum temperature yesterday: 90 °F (at 12:00 PM)
Minimum temperature yesterday: 79 °F (at 5:00 AM)
Average temperature yesterday: 82 °F

Past Weeks' High & Low Weather Summary

 TemperatureHumidityPressure
High93 °F (Nov 13, 2:00 PM)94% (Nov 13, 6:00 PM)29.89 "Hg (Nov 13, 6:00 PM)
Low77 °F (Nov 13, 6:00 PM)52% (Nov 13, 1:00 PM)29.68 "Hg (Nov 25, 4:00 PM)
Average83 °F80%29.79 "Hg
* Reported Nov 12 1:00 PM — Nov 27 1:00 PM, Singapore, Weather by CustomWeather, © 2014

Note: Actual official high and low records may vary slightly from our data, if they occured in-between our weather recording intervals... More about our weather records

Advertising

Singapore weather history for previous 24 hours

 ConditionsComfort  
Time TempWeatherWind HumidityBarometerVisibility
1:00 PM
Nov 27
90 °FPartly sunny.5 mph63%29.77 "HgN/A
12:00 PM88 °FPartly sunny.5 mph66%29.80 "HgN/A
11:00 AM86 °FPartly sunny.3 mph70%29.83 "HgN/A
10:00 AM84 °FBroken clouds.1 mph79%29.83 "Hg5 mi
9:00 AM81 °FBroken clouds.1 mph89%29.80 "Hg5 mi
8:00 AM79 °FBroken clouds.No wind89%29.80 "Hg5 mi
7:00 AM79 °FPartly sunny.No wind89%29.77 "Hg5 mi
6:00 AM79 °FPassing clouds.No wind89%29.74 "HgN/A
5:00 AM79 °FPassing clouds.No wind89%29.74 "HgN/A
11:00 PM
Nov 26
79 °FPassing clouds.1 mph89%29.80 "HgN/A
10:00 PM79 °FPartly cloudy.3 mph89%29.80 "HgN/A
9:00 PM79 °FPassing clouds.2 mph89%29.80 "HgN/A
8:00 PM79 °FLight rain. Passing clouds.1 mph89%29.74 "HgN/A
7:00 PM79 °FPassing clouds.1 mph89%29.74 "HgN/A
6:00 PM79 °FThunderstorms. Scattered clouds.2 mph89%29.71 "Hg4 mi
5:00 PM81 °FThunderstorms. Broken clouds.1 mph89%29.71 "Hg3 mi
4:00 PM81 °FThunderstorms. Broken clouds.2 mph84%29.68 "Hg2 mi
3:00 PM84 °FStrong thunderstorms. Partly sunny.6 mph84%29.71 "Hg1 mi
2:00 PM90 °FScattered clouds.3 mph71%29.71 "HgN/A
Weather by CustomWeather, © 2014

See weather overviewHow to use our weather pages